SCP
0 0 0 0 0 0 0 0 0 0 0 0 0 0 0 0 0 0 0 0 0 0 0 0 0 0 0 0 0 0 0 0 1 1 1 1 1 1
0 0 0 0 0 0 0 0 0 0 0 0 0 0 0 0 0 0 0 0 0 0 0 0 0 0 0 0 0 0 0 0 1 1 1 1 1 1
0 0 0 0 0 0 0 0 0 0 0 0 0 0 0 0 0 0 0 0 0 0 0 0 0 0 0 0 0 0 1 1 1 1 1 1 1 1
0 0 0 0 0 0 0 0 0 0 0 0 0 0 0 0 0 0 0 0 0 0 0 0 0 0 0 0 0 1 1 1 1 1 1 1 1 1
0 0 0 0 0 0 0 0 0 0 0 0 0 0 0 0 0 0 0 0 0 0 0 0 0 0 0 0 0 1 0 0 0 0 0 0 0 1
0 0 0 0 0 0 0 0 0 0 0 0 0 0 0 0 0 0 0 0 0 0 0 0 0 0 0 0 0 0 0 0 0 0 0 0 0 0
0 0 0 0 0 0 0 0 0 0 0 0 0 0 0 0 0 0 0 0 0 0 0 0 0 0 0 0 0 0 0 0 0 0 0 0 0 0
0 0 0 0 0 0 0 0 0 0 0 0 0 0 0 0 0 0 0 0 0 0 0 0 0 0 0 0 0 0 0 0 0 0 0 0 0 0
0 0 0 0 0 0 0 0 0 0 0 0 0 0 0 0 0 0 0 0 0 0 0 0 0 0 0 0 0 0 0 0 0 0 0 0 0 0
0 0 0 0 0 0 0 0 0 0 0 0 0 0 0 0 0 0 0 0 0 0 0 0 0 0 0 0 0 0 0 0 0 0 0 0 0 0
0 0 0 0 0 0 0 0 0 0 0 0 0 0 0 0 0 0 0 0 0 0 0 0 0 0 0 0 0 0 0 0 0 0 0 0 0 0
0 0 0 0 0 0 0 0 0 0 0 0 0 0 0 0 0 0 0 0 0 0 0 0 0 0 0 0 0 0 0 0 0 0 0 0 0 0
0 0 0 0 0 0 0 0 0 0 0 0 0 0 0 0 0 0 0 0 0 0 0 0 0 0 0 0 0 0 0 0 0 0 0 0 0 0
0 0 0 0 0 0 0 0 0 0 0 0 0 0 0 0 0 0 0 0 0 0 0 0 0 0 0 0 0 0 0 0 0 0 0 0 0 0
0 0 0 0 0 0 0 0 0 0 0 0 0 0 0 0 0 0 0 0 0 0 0 0 0 0 0 0 0 0 0 0 0 0 0 0 0 0
0 0 0 0 0 0 0 0 0 0 0 0 0 0 0 0 0 0 0 0 0 0 0 0 0 0 0 0 0 0 0 0 0 0 0 0 0 0
0 0 0 0 0 0 0 0 0 0 0 0 0 0 0 0 0 0 0 0 0 0 0 0 0 0 0 0 0 0 0 0 0 0 0 0 0 0
0 0 0 0 0 0 0 0 0 0 0 0 0 0 0 0 0 0 0 0 0 0 0 0 0 0 0 0 0 0 0 0 0 0 0 0 0 0
0 0 0 0 0 0 0 0 0 0 0 0 0 0 0 0 0 0 0 0 0 0 0 0 0 0 0 0 0 0 0 0 0 0 0 0 0 0
0 0 0 0 0 0 0 0 0 0 0 0 0 0 0 0 0 0 0 0 0 0 0 0 0 0 0 0 0 0 0 0 0 0 0 0 0 0
0 0 0 0 0 0 0 0 0 0 0 0 0 0 0 0 0 0 0 0 0 0 0 0 0 0 0 0 0 0 0 0 0 0 0 0 0 0
0 0 0 0 0 0 0 0 0 0 0 0 0 0 0 0 0 0 0 0 0 0 0 0 0 0 0 0 0 0 0 0 0 0 0 0 0 0
0 0 0 0 0 0 0 0 0 0 0 0 0 0 0 0 0 0 0 0 0 0 0 0 0 0 0 0 0 0 0 0 0 0 0 0 0 0
Wind_Speed
2 3 3 2 2 3 2 2 3 4 5 3 2 2 2 2 6 4 4 9 12 13 13 13 13 13 13 13 14 14 14 15 15 16 16 16 16 17
2 3 3 2 2 2 3 3 3 4 5 3 3 3 3 4 7 5 5 11 12 12 12 12 13 13 13 14 14 14 15 16 16 16 16 17 17 17
2 3 4 3 3 3 3 3 3 4 6 5 3 3 4 5 5 4 4 5 6 11 12 13 13 13 13 14 14 14 15 16 16 16 16 17 17 17
3 3 4 3 4 3 3 4 4 4 5 7 5 4 4 4 4 5 5 5 5 10 12 12 13 13 13 14 14 15 16 16 16 16 16 16 17 17
4 4 4 4 5 4 4 4 4 4 4 5 6 4 4 4 4 5 5 4 5 7 10 11 12 13 13 14 14 15 15 15 15 15 16 16 16 17
4 4 5 5 5 5 4 4 4 4 4 5 6 5 4 4 3 4 5 3 5 5 7 8 11 13 13 14 14 15 15 16 15 15 16 16 16 16
4 5 5 6 7 6 4 4 4 4 4 4 5 5 5 4 4 3 5 5 5 4 4 5 5 5 6 10 13 14 15 15 15 15 15 15 15 16
5 5 5 5 6 8 8 8 6 5 5 5 5 6 6 5 4 4 4 5 5 2 3 6 4 5 5 5 11 15 15 15 15 15 15 15 15 15
5 4 4 4 4 4 6 8 7 8 8 6 7 7 6 5 4 5 5 5 6 4 4 6 3 6 5 7 14 15 15 15 15 15 15 15 15 15
4 4 5 5 4 5 4 5 5 5 6 5 6 7 6 5 5 5 6 6 6 5 4 6 4 5 6 6 12 14 15 14 14 15 15 15 16 15
5 4 4 5 7 8 5 5 6 5 6 7 8 9 10 10 6 3 4 4 6 5 2 4 5 6 6 5 7 12 14 15 15 15 16 16 16 15
4 4 5 7 8 8 4 4 6 6 4 5 6 7 6 6 8 5 4 4 5 5 2 3 4 4 6 4 4 5 6 11 14 15 16 15 15 9
4 3 3 7 9 9 7 4 7 6 4 4 4 4 4 3 4 3 4 4 5 6 3 2 3 3 4 6 5 4 4 5 7 9 12 14 15 11
4 3 4 8 9 9 7 7 9 6 3 3 3 4 4 4 3 3 4 4 5 7 5 4 4 4 4 6 6 5 4 5 5 6 5 10 12 14
4 6 7 8 8 6 7 8 5 2 2 3 4 5 4 4 4 3 4 4 5 6 5 5 6 5 5 6 6 6 6 5 4 5 5 6 6 6
3 4 7 7 6 5 4 4 3 2 3 4 4 4 4 3 3 3 4 4 4 5 4 5 6 6 6 7 7 8 6 5 5 5 6 6 6 5
2 2 2 2 3 3 3 3 3 3 3 4 4 5 5 4 4 3 3 3 4 5 5 3 3 4 7 7 7 8 7 6 6 6 5 7 7 6
2 1 2 3 3 4 4 4 3 3 3 4 4 4 5 5 5 4 3 4 5 5 5 4 3 3 4 5 9 8 6 6 6 5 5 6 8 6
1 2 3 3 4 3 3 4 4 4 3 4 4 4 5 5 4 4 4 4 4 5 5 4 3 3 5 7 6 6 6 6 6 6 5 6 8 8
3 4 4 4 4 4 4 4 4 4 3 4 4 4 4 4 5 5 4 5 5 5 5 4 4 4 5 6 6 6 8 7 6 7 6 6 7 11
4 4 4 4 4 4 4 4 4 4 4 4 4 5 4 4 5 5 5 6 5 5 6 6 5 6 4 3 5 7 6 9 9 7 6 6 6 6
4 4 4 4 4 5 4 4 4 5 5 5 5 5 4 5 6 6 5 5 5 5 6 6 5 4 3 4 7 8 8 7 9 14 14 11 6 5
5 5 5 5 5 4 4 5 6 5 5 5 5 5 5 5 5 5 5 5 5 5 5 5 4 3 4 5 6 7 9 9 7 7 7 12 15 18
Wind_Direction
250 255 253 259 259 261 258 245 243 272 280 277 278 283 287 288 293 296 290 292 297 300 301 302 302 303 302 302 302 301 301 302 301 301 300 300 299 296
247 251 258 259 261 263 257 255 248 253 269 269 272 287 291 292 294 294 287 293 293 296 297 299 301 303 304 303 302 301 301 300 300 300 300 300 299 296
266 260 266 263 256 256 254 254 254 251 263 280 276 286 280 283 294 291 284 282 285 289 293 296 300 303 303 304 305 304 303 303 302 301 300 299 300 301
268 267 270 267 259 257 251 253 255 252 257 278 289 288 277 278 286 288 289 288 287 289 292 295 298 300 303 305 305 305 304 304 302 299 298 297 297 300
266 267 268 266 267 265 259 260 262 263 258 269 284 285 281 283 292 291 286 285 289 292 293 294 295 298 301 302 303 304 305 303 301 299 297 295 295 295
272 269 268 261 262 266 261 260 263 266 267 268 278 282 281 280 278 291 299 293 292 295 292 292 293 296 297 298 300 302 303 301 299 299 298 296 293 293
276 272 273 268 265 265 263 257 252 257 265 269 276 283 283 288 287 291 292 302 290 277 291 286 289 289 294 295 296 298 300 300 299 297 296 294 292 291
277 278 277 273 278 281 280 276 266 260 263 267 274 274 280 283 287 287 291 298 293 279 285 283 274 279 282 280 291 295 299 298 296 297 297 294 292 291
275 282 285 285 280 281 286 289 285 278 267 261 268 269 273 275 278 282 277 277 276 293 298 282 278 279 282 285 295 294 296 298 294 297 297 297 296 294
272 273 279 287 285 286 285 284 282 283 279 269 265 270 273 273 258 264 272 278 278 273 272 277 282 280 284 280 290 293 296 301 304 302 300 299 298 297
273 270 272 279 289 292 288 287 293 293 297 291 286 289 292 293 292 290 284 285 287 282 260 272 286 295 286 275 283 295 299 301 305 307 304 301 299 299
282 278 275 282 291 292 281 281 289 295 303 307 299 297 297 295 292 274 264 265 278 283 265 271 283 310 302 282 286 297 299 299 304 307 306 304 305 307
288 286 283 292 296 296 292 277 281 295 297 295 295 296 295 288 283 276 266 258 259 261 265 273 280 280 269 292 297 292 290 300 306 303 302 304 305 306
283 286 290 299 300 301 298 294 298 302 296 290 291 294 291 286 285 282 274 265 260 262 266 256 257 262 273 282 286 295 292 291 293 294 296 302 306 305
286 297 307 310 310 309 307 310 312 303 291 288 287 288 286 282 284 284 281 275 273 269 265 259 257 260 257 264 276 284 296 294 283 285 295 298 296 299
297 310 313 312 313 317 323 322 319 307 289 281 287 290 296 294 287 284 286 292 289 283 263 256 256 254 262 265 267 277 277 280 295 293 293 291 289 282
318 327 331 326 316 315 314 311 311 311 303 299 293 296 295 292 289 292 284 283 276 287 297 290 268 260 255 260 266 266 273 275 277 287 292 293 289 281
313 287 292 291 289 296 300 303 303 297 295 294 292 292 293 296 297 292 283 278 279 282 287 295 306 306 290 263 241 259 269 274 283 281 273 284 290 289
273 266 269 272 275 279 281 283 286 285 284 280 280 284 288 289 292 291 285 283 284 285 286 290 290 282 291 293 282 247 262 280 287 286 274 265 277 286
255 258 262 265 266 267 269 272 277 280 275 274 274 276 277 280 282 277 276 275 279 284 287 282 270 258 255 272 284 283 275 274 278 283 284 278 273 278
260 258 258 259 261 261 264 265 266 269 269 269 269 269 269 270 274 272 273 277 279 280 282 282 275 272 268 275 281 283 280 275 273 272 280 284 286 286
263 261 260 257 257 259 261 261 265 266 267 265 265 265 264 263 268 271 270 272 274 275 279 283 291 285 256 257 273 285 294 297 291 284 273 261 258 260
263 262 261 260 257 255 256 258 259 262 260 261 263 263 262 264 265 266 267 268 272 277 286 294 295 281 270 265 273 282 289 297 300 298 284 276 268 265